Tracking 19832 objects as of 25-Aug-2019
HD Live streaming from Space Station
objects crossing your sky now

SPACEBEE-6

Track SPACEBEE-6 now!
10-day predictions


NORAD ID: 43818
Int'l Code: 2018-099BN
Perigee: 577.5 km
Apogee: 598.2 km
Inclination: 97.7 °
Period: 96.3 minutes
Semi major axis: 6958 km
RCS: Unknown
Launch date: December 3, 2018
Source: United States (US)
Launch site: AIR FORCE WESTERN TEST RANGE (AFWTR)
aabbcc
Your satellite tracking list
Your tracking list is empty




NASA's NSSDC Master Catalog

Two Line Element Set (TLE):
1 43818U 18099BN  19237.19347193  .00000156  00000-0  19265-4 0  9999
2 43818  97.7422 308.4748 0014910  92.6270 267.6658 14.95533035 39215
Source of the keplerian elements: AFSPC